Wetbulb
62.05 61.25 60.63 60.68 60.18 60.48 60.23 59.98 62.22 63.91 65.32 64.34 63.39 62.39 60.94 60.60 60.79 61.43 61.86 63.06 64.99 67.36 68.36 67.46 67.53 67.90 67.79 67.04 66.01 65.54 65.03 64.30 64.04 63.86 63.68 63.34 63.41 63.34 63.28 63.30 63.76 64.09 64.63
60.46 59.92 59.78 59.24 58.42 59.32 59.47 60.01 60.72 64.39 62.90 61.35 60.30 60.02 59.34 58.94 58.91 58.97 59.11 60.78 62.37 65.56 67.21 67.79 67.56 66.82 66.02 65.08 63.91 63.33 62.74 62.35 62.54 62.39 61.63 61.38 60.99 61.21 61.53 61.79 62.11 61.83 61.94
60.37 59.55 58.77 58.33 58.04 57.64 57.18 58.01 59.19 61.95 60.43 60.02 57.68 57.20 57.80 57.86 57.40 57.00 57.16 57.92 58.95 60.46 63.16 65.01 64.94 64.92 64.05 62.97 61.83 61.18 60.44 60.31 60.53 60.48 60.93 60.23 59.75 59.33 59.13 59.03 59.24 59.39 59.26
60.16 59.43 58.95 58.03 57.73 56.97 58.36 59.73 60.65 58.93 57.93 56.75 55.43 55.06 55.55 56.11 56.73 55.99 55.43 55.71 56.49 57.59 58.21 61.04 62.04 61.80 61.61 61.20 60.44 59.96 59.57 58.91 59.26 58.77 58.70 57.82 57.08 56.80 56.59 56.61 56.40 56.21 56.24
60.18 59.23 59.18 58.43 58.04 57.69 57.10 58.28 57.85 56.35 55.41 54.38 52.84 51.26 52.48 53.70 54.34 55.87 55.47 55.35 55.73 55.34 55.22 57.71 58.48 59.82 60.26 60.03 60.14 59.28 58.40 57.94 57.24 57.24 56.13 55.24 54.79 54.44 54.04 53.74 53.59 53.93 54.16
59.73 58.65 57.07 56.31 56.71 56.31 56.15 56.07 56.31 54.26 52.94 52.19 51.68 49.44 49.03 49.99 50.87 52.19 53.39 54.39 54.43 53.85 53.91 53.93 54.43 55.71 57.82 58.79 58.22 57.97 57.49 56.80 57.66 55.71 54.48 53.06 52.09 51.57 51.50 51.17 51.34 51.73 52.60
56.88 56.63 56.03 54.92 55.14 55.33 54.98 56.11 54.55 51.63 50.66 50.44 49.32 50.29 49.33 49.18 49.14 49.03 49.60 51.05 52.77 53.20 52.86 52.09 52.61 51.66 52.24 56.78 57.40 56.82 57.88 57.71 56.21 54.46 52.51 51.30 51.00 50.21 49.82 50.18 50.50 50.97 51.93
54.90 55.14 53.81 52.77 53.43 53.94 54.03 54.48 54.60 53.17 51.80 51.68 49.66 48.98 48.83 49.22 48.40 47.33 48.61 49.15 49.18 51.47 51.41 52.12 51.68 50.43 50.42 50.98 53.06 55.52 55.77 56.14 54.96 53.16 51.44 50.37 49.86 49.24 49.29 49.46 49.82 50.24 50.85
53.60 52.75 52.35 51.61 51.38 52.19 51.78 51.16 51.95 53.58 51.99 51.54 53.72 52.67 49.03 47.50 46.89 44.90 46.42 46.79 47.71 48.86 48.98 49.35 50.35 49.96 49.12 48.49 48.61 50.45 53.73 54.33 53.37 51.86 50.38 49.57 49.09 48.74 49.11 49.65 49.54 49.56 50.44
51.98 51.85 51.66 51.03 50.94 50.98 50.46 50.56 51.03 49.84 50.26 48.96 50.44 53.18 53.86 49.32 47.64 44.73 43.00 44.33 45.53 46.54 47.60 48.02 47.84 47.75 47.60 46.14 48.44 49.59 50.66 51.10 51.91 50.83 49.90 48.86 48.24 48.33 48.80 49.19 48.62 50.39 51.86
51.21 51.95 51.78 51.49 50.94 50.52 49.74 49.98 49.08 48.52 48.38 47.78 47.46 46.94 46.90 51.47 50.97 47.92 44.85 41.71 42.60 44.57 46.28 46.38 46.53 45.32 45.56 45.17 44.11 46.84 48.38 48.51 49.98 49.91 49.17 48.49 47.82 48.18 48.49 48.32 48.29 49.87 51.58
50.39 51.38 52.50 51.40 50.72 50.37 49.83 48.73 48.16 48.06 47.47 46.76 46.49 45.96 45.93 45.26 47.19 49.66 45.14 41.62 41.83 41.53 44.03 45.48 45.22 44.82 43.83 43.83 45.76 46.20 46.17 46.45 47.42 47.65 47.50 47.19 47.19 47.91 47.81 48.35 49.29 51.03 52.06
49.74 50.28 51.25 50.74 50.81 50.88 50.22 49.70 48.46 47.66 46.85 45.88 45.81 45.91 45.78 45.56 46.02 45.86 45.99 41.05 39.55 39.63 41.79 42.82 42.42 43.59 43.36 43.04 44.50 45.16 45.36 45.24 45.41 45.48 45.47 45.87 46.04 46.34 47.71 48.93 49.28 49.57 49.48
51.63 51.67 51.15 51.56 52.08 51.41 50.36 49.48 48.24 47.49 46.99 46.08 45.54 45.61 45.78 45.87 45.16 44.65 44.13 40.99 37.75 37.17 37.56 37.99 39.63 40.28 41.81 42.62 43.54 44.56 42.57 43.87 43.71 43.50 43.06 43.31 43.76 44.53 44.94 45.27 45.53 45.80 46.22
53.65 52.15 51.22 51.77 52.28 51.60 50.36 48.97 48.03 47.79 47.45 46.65 46.53 46.04 45.43 44.75 43.69 43.01 43.67 43.72 41.31 36.24 36.78 39.39 38.57 40.48 40.49 41.58 42.71 39.87 40.36 42.49 41.67 41.41 41.61 41.98 42.60 42.77 42.78 42.61 42.98 43.34 43.75
54.21 52.70 51.80 52.03 52.00 51.12 50.38 49.21 48.04 48.45 47.93 46.03 46.60 46.39 45.01 44.26 41.92 41.04 41.00 41.49 41.58 41.65 41.05 41.21 39.86 39.68 40.31 40.74 41.11 38.94 39.76 40.83 40.30 40.03 40.47 40.68 41.22 41.51 40.55 40.58 40.99 41.22 42.49
53.74 53.31 52.79 52.28 52.04 50.65 50.04 49.28 49.07 49.46 48.46 47.91 47.15 46.07 45.79 43.81 41.24 40.41 39.63 39.36 39.01 39.28 37.14 37.47 40.68 37.61 38.41 38.34 37.55 38.00 38.63 37.37 37.66 38.63 38.49 38.68 38.96 38.53 38.09 37.80 37.79 38.38 39.07
53.31 53.37 53.03 52.78 52.55 52.07 50.50 49.77 48.99 49.44 48.13 46.57 46.90 46.61 46.13 44.15 41.84 39.89 38.76 37.45 37.08 37.55 37.83 35.44 34.96 36.54 36.90 37.63 35.97 35.65 36.36 36.58 35.64 37.41 37.23 37.25 37.72 36.72 36.23 35.68 35.45 35.79 35.77
52.87 52.33 52.09 51.92 52.02 51.33 50.23 49.68 49.10 49.04 49.21 48.40 47.50 45.62 44.08 42.90 40.80 40.60 40.35 39.75 39.52 38.93 39.39 37.60 35.36 36.28 35.44 35.37 34.35 34.78 34.67 33.90 35.06 37.19 36.25 36.19 37.00 36.26 35.30 34.88 34.37 33.95 33.80
48.62 48.51 47.53 47.20 46.35 44.66 45.25 46.88 47.69 46.39 44.42 43.22 42.16 41.24 40.33 39.57 38.00 38.08 36.79 35.96 37.34 36.63 37.47 34.68 32.49 33.48 33.68 34.36 33.89 32.10 30.45 32.73 32.22 34.42 34.92 34.89 36.10 35.98 34.99 34.50 34.26 33.77 32.99
46.56 46.54 44.86 42.61 40.64 40.79 41.14 43.33 45.35 42.93 41.65 39.68 38.64 37.99 37.14 37.25 36.71 36.00 34.62 33.31 34.19 33.82 33.46 33.65 30.38 31.68 31.90 31.72 31.26 32.06 30.17 30.50 31.44 29.24 30.56 32.08 31.38 30.85 31.26 33.04 33.89 33.85 32.87
42.66 42.55 41.43 39.17 38.11 39.37 38.49 39.13 41.92 40.93 40.25 37.93 36.02 35.28 36.00 35.79 35.02 34.74 33.95 33.46 32.89 30.22 29.23 29.68 28.84 30.73 32.67 32.78 32.73 30.98 29.58 28.31 26.22 28.48 27.81 28.68 30.39 27.23 27.92 27.92 32.22 32.42 32.07
37.73 38.40 37.70 37.51 36.04 37.28 37.69 37.68 37.70 36.90 36.86 35.79 34.98 34.91 34.85 34.59 33.81 32.45 32.36 31.19 30.70 31.37 31.75 32.01 31.49 32.27 32.91 33.81 33.45 31.12 29.50 28.51 26.38 27.55 28.23 26.58 29.63 26.69 27.83 30.07 31.67 31.39 31.31
34.18 34.19 34.51 33.57 32.93 35.44 36.35 36.02 35.23 34.55 33.42 33.33 33.66 33.08 31.80 31.09 31.51 31.47 29.86 27.30 25.99 26.29 27.53 29.34 28.95 30.63 31.22 32.62 34.56 33.95 31.15 30.55 29.17 28.74 30.21 25.05 26.40 24.42 27.35 28.85 31.28 30.60 29.76
32.94 32.76 33.12 32.50 32.87 33.26 35.96 35.51 33.86 32.42 31.29 30.74 32.17 31.27 30.64 29.95 30.99 31.17 28.87 26.73 21.57 18.50 26.40 29.54 30.56 31.74 32.76 33.42 35.38 33.68 29.61 28.45 26.14 26.82 31.04 21.85 22.40 20.78 23.83 23.87 28.29 30.42 29.25
32.58 33.49 32.58 32.76 34.10 32.94 35.53 35.14 33.41 31.75 29.72 28.72 28.35 28.75 28.93 26.05 28.65 29.84 27.89 21.71 14.05 18.08 15.69 17.52 19.33 24.01 27.33 27.75 31.75 33.41 32.10 28.63 25.20 25.10 28.42 21.47 22.21 21.67 18.91 21.81 22.37 24.12 25.47
MSLP
1018.80 1019.16 1019.51 1019.61 1019.74 1019.69 1019.51 1019.73 1019.52 1019.49 1019.40 1019.54 1019.47 1020.04 1020.06 1020.36 1020.22 1020.20 1019.91 1019.27 1018.54 1018.49 1018.39 1018.58 1018.70 1018.49 1019.47 1020.17 1018.72 1020.39 1020.94 1021.25 1020.98 1021.09 1021.42 1021.51 1021.48 1021.71 1021.92 1021.88 1021.90 1021.73 1021.73
1018.81 1019.29 1019.52 1019.49 1019.48 1019.67 1019.87 1020.03 1020.14 1019.82 1020.07 1020.21 1020.34 1020.54 1020.99 1020.77 1020.15 1020.76 1020.49 1020.06 1019.28 1019.23 1019.27 1019.45 1019.67 1020.22 1020.68 1021.02 1021.33 1021.24 1021.43 1021.64 1021.69 1021.81 1021.55 1021.71 1021.89 1021.94 1022.31 1022.32 1022.21 1022.16 1022.14
1018.73 1019.06 1019.37 1019.44 1019.43 1019.43 1019.73 1019.82 1020.04 1020.24 1020.61 1020.57 1021.05 1021.20 1021.25 1021.07 1020.99 1021.36 1021.05 1021.05 1020.26 1020.17 1020.26 1020.56 1020.92 1020.84 1021.32 1021.73 1021.86 1021.83 1022.16 1022.49 1022.28 1022.13 1021.97 1022.12 1022.56 1022.82 1022.94 1022.74 1022.70 1022.67 1022.62
1018.72 1019.06 1019.41 1019.55 1019.60 1019.57 1019.54 1019.74 1020.23 1020.72 1021.15 1021.46 1021.79 1022.03 1022.00 1021.77 1021.63 1021.77 1021.49 1021.78 1021.52 1020.69 1020.59 1021.09 1021.63 1021.87 1022.09 1022.38 1022.49 1022.47 1022.63 1022.94 1022.67 1022.73 1022.58 1022.72 1023.03 1023.22 1023.41 1023.32 1023.31 1023.13 1022.94
1018.84 1019.14 1019.42 1019.55 1019.60 1019.86 1019.82 1019.99 1020.64 1021.04 1021.53 1021.92 1022.01 1022.12 1022.19 1022.03 1022.13 1021.93 1022.11 1022.15 1021.91 1022.00 1021.49 1020.79 1021.92 1022.27 1022.36 1022.73 1022.69 1022.90 1022.78 1022.96 1022.98 1023.29 1023.36 1023.52 1023.45 1023.57 1023.68 1023.90 1023.71 1023.56 1023.32
1018.99 1019.31 1019.66 1019.84 1020.00 1020.38 1020.54 1020.42 1020.85 1021.37 1021.91 1022.25 1022.58 1023.01 1022.97 1022.83 1022.82 1022.68 1022.85 1022.73 1022.51 1022.50 1022.59 1022.24 1021.80 1022.27 1022.68 1022.73 1022.99 1022.99 1022.87 1023.06 1023.05 1023.87 1023.82 1024.08 1024.27 1024.11 1024.01 1024.10 1024.17 1023.93 1023.70
1019.16 1019.49 1019.88 1020.12 1020.13 1020.42 1020.60 1020.57 1021.03 1021.55 1022.01 1022.16 1022.22 1022.80 1022.97 1023.14 1023.25 1023.30 1023.48 1023.50 1023.41 1023.30 1023.42 1023.62 1023.65 1022.60 1022.88 1023.17 1023.19 1022.99 1022.80 1023.06 1023.37 1023.91 1024.34 1024.45 1024.56 1024.74 1024.46 1024.26 1024.29 1024.02 1023.95
1019.35 1019.67 1019.98 1020.24 1020.37 1020.54 1020.70 1020.74 1020.82 1021.41 1021.71 1021.99 1022.27 1022.65 1022.94 1023.24 1023.39 1023.71 1023.75 1023.73 1023.82 1023.62 1023.81 1023.79 1023.91 1023.77 1023.70 1023.78 1023.76 1023.44 1023.34 1023.14 1023.65 1024.12 1024.62 1024.84 1024.73 1024.88 1024.90 1024.49 1024.29 1024.36 1024.19
1019.76 1019.90 1020.09 1020.30 1020.49 1020.66 1021.00 1021.16 1021.14 1021.42 1021.93 1022.06 1022.19 1022.41 1022.92 1023.20 1023.58 1023.77 1023.78 1023.61 1023.74 1023.90 1024.07 1024.06 1024.00 1024.11 1024.30 1024.16 1024.58 1023.88 1023.55 1023.65 1024.03 1024.39 1024.63 1025.03 1024.99 1024.87 1025.04 1024.83 1024.60 1024.59 1024.40
1019.86 1019.97 1020.11 1020.23 1020.38 1020.54 1020.72 1020.84 1021.06 1021.30 1021.66 1022.13 1022.33 1022.30 1022.28 1022.51 1023.20 1023.67 1023.84 1023.97 1023.96 1023.90 1023.94 1023.93 1023.99 1024.07 1024.50 1024.79 1024.98 1024.59 1024.44 1024.10 1023.93 1024.53 1024.72 1024.91 1025.46 1025.11 1025.04 1024.96 1024.84 1024.66 1024.65
1019.72 1019.80 1020.07 1020.34 1020.49 1020.53 1020.66 1020.80 1020.93 1021.27 1021.59 1021.96 1022.29 1022.37 1022.36 1022.37 1022.53 1023.04 1023.52 1023.90 1024.19 1024.05 1024.04 1023.93 1024.03 1024.35 1024.47 1024.75 1025.14 1025.25 1025.11 1025.04 1024.74 1024.60 1024.81 1025.02 1025.24 1025.24 1025.30 1025.18 1025.04 1024.70 1024.69
1019.69 1019.70 1019.88 1020.16 1020.29 1020.42 1020.65 1020.88 1021.18 1021.39 1021.59 1021.82 1022.27 1022.51 1022.63 1022.66 1022.64 1022.68 1023.13 1023.52 1023.65 1023.50 1023.54 1023.70 1023.99 1024.10 1024.42 1024.72 1024.89 1025.14 1025.35 1025.30 1025.46 1025.29 1025.09 1025.21 1025.27 1025.44 1025.40 1025.30 1025.15 1024.95 1024.87
1019.75 1019.69 1019.72 1019.99 1020.04 1020.17 1020.55 1020.85 1021.12 1021.20 1021.48 1021.75 1022.02 1022.35 1022.50 1022.51 1022.50 1022.51 1022.62 1023.18 1023.43 1023.65 1023.71 1023.60 1023.85 1024.24 1024.38 1024.63 1024.82 1025.04 1025.21 1025.50 1025.59 1025.96 1025.55 1025.51 1025.59 1025.78 1025.94 1025.40 1025.51 1025.49 1025.37
1018.75 1018.95 1019.30 1019.54 1019.79 1020.01 1020.22 1020.69 1021.15 1021.21 1021.30 1021.61 1021.91 1022.23 1022.33 1022.42 1022.36 1022.37 1022.61 1023.04 1023.57 1023.83 1023.96 1023.75 1023.93 1024.10 1024.47 1024.71 1024.75 1025.12 1025.34 1025.61 1026.00 1026.06 1026.15 1026.23 1026.04 1026.29 1026.25 1026.30 1026.04 1026.31 1026.34
1018.22 1018.60 1018.95 1019.24 1019.40 1019.77 1020.06 1020.33 1020.71 1020.76 1020.95 1021.23 1021.41 1021.65 1022.13 1022.34 1022.33 1022.37 1022.45 1022.53 1022.85 1023.65 1023.65 1023.62 1023.87 1023.84 1024.38 1024.67 1024.91 1025.34 1025.64 1025.84 1026.17 1026.48 1026.66 1026.43 1026.47 1026.43 1026.64 1026.92 1026.95 1026.95 1027.03
1017.84 1018.20 1018.50 1018.79 1019.14 1019.38 1019.59 1019.97 1020.33 1020.56 1020.84 1021.07 1021.27 1021.39 1021.88 1022.21 1022.33 1022.59 1022.55 1022.48 1022.54 1022.75 1023.03 1022.89 1023.40 1023.77 1023.98 1024.79 1025.01 1025.42 1025.92 1026.23 1026.45 1026.76 1026.95 1027.02 1026.85 1026.83 1027.12 1027.49 1027.56 1027.83 1027.57
1017.39 1017.74 1018.04 1018.39 1018.75 1019.15 1019.52 1019.80 1020.06 1020.28 1020.53 1020.65 1020.81 1021.15 1021.56 1021.83 1022.36 1022.69 1022.80 1022.83 1022.84 1022.90 1023.17 1023.19 1023.41 1023.99 1024.47 1024.72 1025.40 1025.77 1026.08 1026.47 1026.80 1027.13 1027.37 1027.53 1027.57 1027.53 1027.68 1027.94 1028.33 1028.59 1028.43
1017.02 1017.28 1017.76 1018.21 1018.61 1019.02 1019.34 1019.63 1019.87 1020.12 1020.25 1020.61 1020.81 1021.00 1021.09 1021.81 1022.02 1022.34 1022.58 1022.82 1023.07 1022.94 1023.11 1023.39 1023.96 1024.26 1024.67 1024.93 1025.26 1025.89 1026.34 1026.73 1027.07 1027.43 1027.78 1027.93 1028.11 1028.27 1028.45 1028.66 1028.82 1028.86 1028.96
1017.25 1017.61 1018.08 1018.44 1018.63 1018.86 1019.15 1019.33 1019.42 1019.52 1019.80 1020.16 1020.34 1020.76 1021.20 1021.65 1022.02 1022.28 1022.45 1022.80 1022.87 1022.68 1022.74 1023.13 1023.75 1024.04 1024.85 1025.21 1025.56 1026.26 1026.69 1027.15 1027.27 1027.51 1027.99 1028.32 1028.46 1028.61 1028.86 1028.97 1029.06 1029.18 1029.39
1018.21 1018.36 1018.63 1018.94 1019.00 1019.10 1019.26 1019.32 1019.40 1019.67 1019.89 1020.52 1020.93 1021.18 1021.62 1021.88 1022.27 1022.46 1022.91 1023.10 1023.10 1022.90 1022.86 1022.96 1023.60 1024.04 1024.65 1025.33 1025.47 1025.99 1026.84 1027.32 1027.42 1027.60 1028.05 1028.42 1028.64 1028.89 1029.04 1029.15 1029.33 1029.51 1029.73
1018.33 1019.23 1019.67 1020.17 1019.82 1019.89 1019.96 1019.85 1019.84 1019.98 1020.69 1021.27 1021.66 1022.01 1022.13 1022.27 1022.44 1022.67 1023.04 1023.37 1023.29 1023.29 1023.27 1023.42 1023.51 1023.99 1024.55 1024.99 1025.01 1025.55 1026.33 1027.07 1027.64 1027.97 1028.37 1028.62 1028.99 1029.26 1029.33 1029.44 1029.62 1029.81 1030.10
1018.78 1019.31 1019.90 1020.65 1020.82 1020.82 1020.77 1020.50 1020.42 1020.65 1020.92 1021.56 1022.36 1022.76 1022.82 1022.82 1022.97 1023.07 1023.35 1023.62 1023.58 1023.66 1023.73 1023.78 1023.83 1023.87 1024.01 1024.23 1024.64 1025.16 1026.01 1026.88 1027.84 1028.00 1028.36 1029.00 1029.17 1029.68 1029.71 1029.93 1030.07 1030.32 1030.40
1019.81 1020.54 1020.70 1021.13 1021.64 1021.55 1021.25 1021.18 1020.94 1021.28 1022.04 1021.81 1022.41 1022.88 1023.03 1023.20 1023.42 1023.62 1023.83 1024.17 1024.28 1024.15 1024.18 1024.07 1023.95 1023.81 1023.88 1023.76 1023.97 1024.74 1025.36 1025.95 1026.49 1027.13 1027.88 1028.95 1029.36 1029.91 1030.04 1030.15 1030.27 1030.49 1030.67
1020.85 1020.86 1021.20 1021.26 1021.99 1022.26 1021.91 1022.08 1022.04 1022.24 1022.50 1022.57 1023.01 1023.32 1023.60 1023.79 1023.87 1023.94 1024.19 1024.64 1024.93 1025.01 1024.86 1024.62 1024.39 1024.18 1024.11 1023.90 1023.64 1023.65 1024.33 1025.50 1026.43 1027.08 1027.54 1028.69 1029.44 1030.05 1030.43 1030.47 1030.43 1030.59 1030.81
1021.09 1021.11 1021.53 1021.82 1022.21 1022.35 1022.30 1022.38 1022.48 1022.73 1023.02 1023.47 1023.74 1023.90 1024.02 1024.20 1024.28 1024.27 1024.50 1025.00 1025.48 1025.67 1025.21 1024.80 1024.49 1024.32 1024.13 1023.86 1023.51 1023.80 1024.40 1025.20 1026.10 1026.79 1027.14 1028.37 1029.48 1030.22 1030.75 1030.97 1030.82 1030.76 1031.01
1021.19 1021.46 1021.96 1022.28 1022.60 1022.73 1022.57 1022.60 1022.81 1023.04 1023.44 1024.02 1024.44 1024.58 1024.47 1024.52 1024.50 1024.51 1024.70 1025.24 1025.86 1026.07 1025.82 1025.35 1025.23 1024.77 1024.47 1024.19 1023.69 1023.40 1023.68 1024.23 1025.31 1026.43 1026.99 1028.11 1029.29 1029.94 1031.14 1031.37 1031.35 1031.24 1031.30
Wind_Speed
4 4 4 4 2 2 2 2 3 2 4 7 8 6 4 6 7 3 3 17 7 4 3 4 2 11 15 12 17 14 11 9 12 13 12 14 11 11 10 9 9 9 8
5 4 4 3 3 3 1 1 2 3 4 5 6 6 5 4 8 6 5 7 18 17 18 17 19 17 15 15 15 15 13 10 10 11 13 13 12 12 10 11 11 12 12
6 5 4 3 2 1 2 4 2 6 4 5 7 6 5 5 8 8 7 6 8 18 16 14 14 15 14 12 12 12 10 8 9 10 14 15 14 12 11 12 11 11 10
6 5 3 1 1 1 2 2 6 5 5 5 4 4 4 6 8 6 6 4 5 5 13 14 11 12 12 9 10 11 12 10 12 12 14 14 12 10 10 9 9 8 7
5 4 3 2 2 2 2 2 3 4 5 4 5 4 3 4 3 5 6 4 5 5 4 16 13 10 10 8 10 10 11 11 10 11 11 11 9 9 8 7 7 5 6
5 4 4 4 3 3 2 3 5 4 3 3 5 5 4 4 4 6 5 4 4 5 4 5 6 7 6 9 9 9 10 10 12 10 9 8 5 5 5 4 3 3 3
5 5 4 4 3 4 2 4 4 4 3 1 3 3 3 5 5 5 4 4 5 4 5 5 4 3 5 9 6 8 11 11 11 10 7 5 5 4 2 3 2 3 3
5 5 5 5 4 4 5 4 3 2 2 3 3 2 2 1 2 2 2 3 4 3 2 2 2 4 4 4 7 3 7 10 10 9 6 4 4 2 2 2 2 2 3
5 6 5 4 4 4 4 2 3 3 2 3 4 2 1 3 1 1 2 2 1 1 2 2 1 3 3 4 4 6 7 9 10 7 6 3 3 3 3 3 3 2 1
4 5 5 5 5 3 4 3 3 2 3 2 1 1 2 3 3 2 1 2 2 2 3 2 2 4 5 3 4 6 7 8 11 8 5 4 2 3 2 3 2 4 4
5 6 5 4 4 4 4 4 4 4 2 3 2 0 1 2 1 2 2 2 2 2 3 3 3 3 4 4 3 5 6 7 6 9 7 5 3 3 3 3 0 2 1
4 6 6 5 4 4 4 4 3 5 4 3 2 1 2 1 2 3 2 2 3 3 3 3 4 5 5 4 7 10 9 9 8 7 7 6 5 4 4 3 3 2 10
3 6 6 5 4 4 5 4 4 3 3 2 3 2 1 1 1 1 2 2 3 2 2 2 3 3 5 4 5 10 12 10 10 7 9 9 8 6 6 8 6 9 10
6 6 7 6 6 6 6 5 3 3 4 3 4 3 2 1 1 2 3 4 0 1 1 3 2 4 4 4 8 12 7 11 10 10 8 7 7 8 11 12 12 11 10
5 6 7 7 6 6 7 6 4 4 4 4 5 4 3 2 1 1 1 3 4 3 4 4 3 5 5 5 8 5 6 12 12 10 8 7 7 9 10 11 11 10 8
6 7 8 7 6 6 7 7 5 4 5 4 4 5 3 2 3 1 0 0 1 3 3 2 2 3 7 6 10 7 7 11 12 11 9 8 8 11 12 11 12 10 8
7 8 8 7 7 7 6 6 6 6 6 5 4 6 6 5 3 1 1 1 1 1 2 1 2 3 5 9 7 5 7 6 6 10 10 9 10 12 12 11 11 9 11
6 7 6 6 6 6 6 7 7 6 7 6 6 5 5 3 4 3 2 1 1 2 3 3 2 2 2 7 7 9 7 6 5 9 8 8 9 11 11 10 8 9 10
4 4 3 4 5 5 5 6 6 6 5 3 5 6 5 5 4 3 3 1 2 0 3 3 3 2 3 6 7 6 6 6 5 11 9 8 8 11 11 10 8 8 7
8 7 7 6 6 6 5 4 2 3 6 6 5 6 5 6 5 5 3 3 3 1 1 3 2 3 3 4 5 8 5 4 6 6 7 6 10 12 10 9 8 8 7
9 8 7 7 7 7 5 5 2 6 7 7 6 7 6 9 11 7 3 2 2 1 1 1 3 3 3 6 9 5 5 5 3 2 3 3 3 3 4 7 8 10 8
9 8 8 6 7 5 11 10 5 5 7 8 6 5 6 9 9 13 12 10 5 2 1 0 2 4 5 7 5 8 7 7 4 3 4 2 4 2 3 3 8 9 8
8 6 7 7 6 4 10 11 10 6 4 6 6 5 5 5 6 7 10 10 9 11 7 0 1 2 4 7 8 9 8 9 4 5 7 4 3 4 2 5 10 8 8
6 5 6 6 5 4 10 11 11 7 6 7 5 5 5 5 4 4 4 4 4 4 4 3 3 3 2 4 9 11 11 6 5 7 5 3 3 3 2 2 10 9 9
6 6 4 6 6 3 6 10 8 6 7 7 6 5 5 4 5 5 3 3 3 3 5 3 3 4 7 10 7 5 7 8 4 5 4 4 3 3 2 1 0 10 10
6 5 5 5 6 3 6 8 7 4 6 4 5 5 7 4 4 4 3 4 3 2 3 4 4 4 6 6 10 5 8 9 4 3 5 5 5 4 2 1 1 1 2
Wind_Direction
118 115 115 142 182 213 198 268 48 31 54 79 101 76 55 23 15 36 13 16 42 58 109 213 162 95 107 101 104 98 103 94 96 101 94 76 77 81 77 87 86 80 80
126 125 128 160 218 223 216 230 88 48 68 73 89 89 60 46 74 30 17 27 53 64 77 90 94 89 85 85 82 86 80 86 91 93 91 89 82 76 78 78 81 81 78
134 139 149 190 226 219 192 128 108 103 91 82 59 55 55 61 65 30 28 12 51 55 61 78 91 95 92 87 89 96 99 102 101 96 88 85 81 78 77 72 75 76 78
134 138 155 206 188 254 335 39 122 106 84 73 79 59 51 52 68 57 54 22 9 70 72 68 77 89 94 100 102 102 100 88 85 86 86 81 73 72 62 66 65 65 72
137 123 124 131 105 78 50 122 102 116 116 110 90 59 49 71 68 96 74 40 50 34 63 94 76 79 104 116 113 114 107 106 90 82 76 68 66 61 56 42 41 47 62
114 120 107 86 69 74 53 61 92 68 85 92 88 64 36 36 38 40 30 41 46 52 38 66 107 85 82 129 128 125 113 107 104 89 76 71 61 70 65 52 37 54 65
117 117 103 98 79 92 98 116 110 88 77 78 78 48 48 36 36 35 22 20 12 30 34 19 348 76 67 50 140 141 130 121 114 105 90 82 71 36 52 61 47 64 53
99 105 112 97 97 105 82 64 93 133 100 191 117 128 36 15 46 39 32 28 20 27 27 100 63 57 71 64 36 110 139 128 122 111 113 107 97 40 1 57 58 50 38
103 111 115 125 118 107 116 111 108 119 137 218 229 132 97 238 220 138 218 178 172 107 22 47 204 103 82 73 45 50 69 121 122 121 113 90 65 78 5 18 50 44 52
126 133 144 155 152 153 153 149 143 134 120 168 334 321 270 131 197 297 311 271 257 207 208 180 117 118 124 95 105 76 71 102 125 130 125 101 9 37 23 30 24 349 334
170 174 172 172 172 157 133 133 131 136 133 129 163 270 323 191 153 171 237 231 270 244 222 192 164 136 135 122 112 86 71 74 92 124 123 114 92 55 26 355 358 327 88
190 190 187 186 179 156 165 166 155 160 158 143 135 158 178 192 251 206 169 195 211 219 199 202 180 157 155 152 149 127 103 84 78 94 107 101 80 49 67 17 2 278 81
200 211 190 189 181 187 181 167 161 159 160 146 162 180 193 211 253 276 131 181 200 241 235 218 168 148 165 149 150 137 124 106 100 94 90 82 71 62 41 46 54 57 68
196 186 193 189 198 184 175 170 170 181 165 168 181 183 170 208 180 201 171 147 128 275 289 240 191 157 148 145 158 144 129 118 111 107 96 86 87 76 65 55 50 46 42
189 187 188 193 192 187 183 176 185 193 168 184 194 180 178 182 165 128 179 161 162 192 235 197 178 158 147 146 149 123 123 130 119 107 98 109 109 92 83 69 58 47 30
187 178 194 192 191 198 191 183 185 198 190 209 206 180 171 143 103 83 37 93 129 177 230 138 169 146 151 143 147 128 134 130 117 104 93 89 98 105 94 82 65 50 50
193 189 190 182 193 195 201 197 205 206 202 208 199 193 194 162 153 111 67 24 14 104 185 350 78 118 131 145 137 130 122 114 117 113 106 98 98 101 98 87 74 56 49
186 186 175 181 192 202 202 204 210 207 204 204 211 201 167 173 135 119 64 344 224 213 156 164 119 138 132 149 138 130 139 135 126 135 131 125 124 120 113 106 98 80 63
123 108 142 188 202 205 213 228 223 218 213 207 171 142 137 141 115 109 114 3 301 107 163 148 148 126 95 144 127 124 140 129 148 151 151 151 148 138 126 120 117 99 83
71 69 60 49 44 48 28 359 202 131 108 96 81 99 103 104 110 94 66 30 332 279 214 141 116 120 123 151 139 144 144 161 158 158 156 153 136 133 133 127 127 128 117
86 71 58 38 46 41 25 354 80 116 110 98 90 98 97 107 96 86 115 55 6 26 6 237 128 138 147 163 177 164 154 149 153 126 136 133 112 116 136 137 123 117 124
85 84 79 66 46 32 15 18 81 110 119 121 117 103 103 95 96 97 93 81 63 105 106 225 178 181 190 176 160 165 152 155 174 188 137 129 139 109 112 112 143 140 126
75 72 74 68 61 42 53 46 64 71 68 102 116 123 105 101 101 111 97 81 61 57 47 312 236 229 187 193 168 167 177 184 164 156 132 145 138 126 153 162 157 154 151
80 99 95 93 83 51 75 70 71 74 73 63 75 86 98 89 82 102 104 80 49 40 36 11 350 336 325 308 201 189 183 155 103 151 128 128 126 113 98 115 166 161 158
104 78 94 96 106 78 103 111 97 86 80 65 64 75 84 73 52 49 115 114 48 345 355 20 342 350 349 356 239 174 159 158 141 166 162 114 135 105 73 39 162 172 160
102 100 90 99 111 88 123 116 109 111 103 91 63 58 77 77 52 41 141 139 112 297 335 0 355 349 8 2 11 226 179 174 136 121 150 108 140 130 136 274 269 34 119